EW8599 Weather Reports


Display with metric or nautical units.
time (UTC)temp
F
wind
direction
speed
MPH
gust
MPH
rain 1hr
in
rain 24hr
in
rain mn
in
humidity
%
barometer
mb
20260507040544 46 273 0.0 0.0 0.01 0.36 0.00 95 1000.8
20260507040207 46 273 0.0 0.0 0.01 0.00 0.00 95 1000.7
20260507040046 46 273 0.0 0.0 0.01 0.36 0.00 95 1000.6
20260507035703 46 273 0.0 0.0 0.01 0.00 0.00 95 1000.4
20260507035547 46 273 0.0 0.0 0.01 0.36 0.00 95 1000.4
20260507035159 46 273 0.0 0.0 0.01 0.00 0.00 95 1000.4
20260507035047 46 273 0.0 0.0 0.01 0.36 0.00 95 1000.3
20260507034656 46 273 0.0 0.0 0.01 0.00 0.00 95 1000.4
20260507034549 46 273 0.0 0.0 0.01 0.36 0.00 95 1000.0
20260507034154 46 273 0.0 0.0 0.01 0.00 0.00 95 1000.0
20260507034047 46 273 0.0 0.0 0.01 0.36 0.00 95 999.8
20260507033820 46 273 0.0 0.0 0.01 0.36 0.00 95 999.7
20260507033652 46 273 0.0 0.0 0.01 0.00 0.00 95 1000.0
20260507033149 46 273 0.0 0.0 0.01 0.00 0.00 95 1000.0
20260507033043 46 273 0.0 0.0 0.01 0.36 0.00 95 999.7
20260507032835 46 273 0.0 0.0 0.02 0.36 0.00 95 1000.0
20260507032831 46 272 0.0 0.0 0.01 0.36 0.00 95 999.8
20260507032647 46 273 0.0 0.0 0.02 0.00 0.00 95 1000.0
20260507032142 46 273 0.0 0.0 0.02 0.00 0.00 95 1000.4
20260507031639 46 273 0.0 0.0 0.01 0.00 0.00 95 1000.4
20260507031544 46 273 0.0 0.0 0.01 0.35 0.00 95 1000.2
20260507031136 46 273 0.0 0.0 0.01 0.00 0.00 95 1000.4
20260507031041 46 273 0.0 0.0 0.01 0.35 0.00 95 1000.3
20260507030633 46 273 0.0 0.0 0.01 0.00 0.00 95 1000.4
20260507030544 46 273 0.0 0.0 0.01 0.35 0.00 95 1000.2
20260507030131 46 273 0.0 2.0 0.01 0.00 0.00 95 1000.4
20260507030040 46 273 0.0 2.0 0.01 0.35 0.00 95 1000.4
20260507025627 46 273 0.0 2.0 0.01 0.00 0.00 95 1000.7
20260507025540 46 273 0.0 2.0 0.01 0.35 0.00 95 1000.5
20260507025124 46 273 0.0 1.0 0.01 0.00 0.00 95 1000.4
20260507025037 46 273 0.0 1.0 0.01 0.35 0.00 95 1000.4
20260507024622 46 273 0.0 1.0 0.01 0.00 0.00 95 1000.4
20260507024538 46 273 0.0 1.0 0.01 0.35 0.00 95 1000.3
20260507024119 46 273 0.0 0.0 0.01 0.00 0.00 95 1000.4
20260507024037 45 273 0.0 0.0 0.01 0.35 0.00 95 1000.3
20260507023614 45 273 0.0 0.0 0.01 0.00 0.00 95 1000.7
20260507023537 45 273 0.0 0.0 0.01 0.35 0.00 95 1000.5
20260507023112 45 273 0.0 0.0 0.01 0.00 0.00 95 1000.4
20260507023037 45 273 0.0 0.0 0.01 0.35 0.00 95 1000.4
20260507022609 45 273 0.0 0.0 0.01 0.00 0.00 95 1000.4
20260507022528 45 273 0.0 0.0 0.01 0.35 0.00 95 1000.5
20260507022104 45 273 0.0 0.0 0.00 0.00 0.00 95 1000.4
20260507022040 45 273 0.0 0.0 0.00 0.34 0.00 95 1000.4
20260507021601 45 273 0.0 0.0 0.00 0.00 0.00 94 1000.4
20260507021521 45 273 0.0 0.0 0.00 0.34 0.00 94 1000.4
20260507021057 45 273 0.0 0.0 0.00 0.00 0.00 94 1000.7
20260507021019 45 273 0.0 0.0 0.00 0.34 0.00 94 1000.5
20260507020555 45 273 0.0 0.0 0.00 0.00 0.00 94 1000.7
20260507020536 45 273 0.0 0.0 0.00 0.34 0.00 94 1000.5
20260507020532 45 273 0.0 0.0 0.00 0.34 0.00 94 1000.5
20260507020051 45 273 0.0 0.0 0.00 0.00 0.00 94 1000.7
20260507015550 45 273 0.0 0.0 0.01 0.00 0.00 94 1001.0
20260507015510 45 273 0.0 0.0 0.00 0.34 0.00 94 1000.8
20260507015258 45 273 0.0 0.0 0.01 0.34 0.00 94 1000.6
20260507015047 45 273 0.0 0.0 0.01 0.00 0.00 94 1000.7
20260507014543 45 273 0.0 0.0 0.01 0.00 0.00 94 1000.7
20260507014506 45 273 0.0 0.0 0.01 0.34 0.00 94 1000.7
20260507014039 45 273 0.0 0.0 0.01 0.00 0.00 94 1000.7
20260507014007 45 273 0.0 0.0 0.01 0.34 0.00 94 1000.7
20260507013536 45 273 0.0 0.0 0.01 0.00 0.00 94 1001.0
20260507013508 45 273 0.0 0.0 0.01 0.34 0.00 94 1000.8
20260507013250 45 273 0.0 0.0 0.01 0.34 0.00 94 1000.8
20260507013033 45 273 0.0 0.0 0.01 0.00 0.00 94 1001.0
20260507012530 45 273 0.0 0.0 0.01 0.00 0.00 94 1000.7
20260507012507 45 273 0.0 0.0 0.01 0.34 0.00 94 1000.7
20260507012251 45 273 0.0 0.0 0.01 0.34 0.00 94 1000.6
20260507012026 45 273 0.0 0.0 0.01 0.00 0.00 94 1000.7
20260507011524 45 273 0.0 0.0 0.01 0.00 0.00 94 1000.7
20260507011506 45 273 0.0 0.0 0.01 0.34 0.00 94 1000.5
20260507011020 45 273 0.0 0.0 0.02 0.00 0.00 94 1000.7
20260507011004 45 273 0.0 0.0 0.02 0.34 0.00 94 1000.5
20260507010514 46 273 0.0 0.0 0.02 0.00 0.00 94 1000.7
20260507010506 46 273 0.0 0.0 0.02 0.34 0.00 94 1000.5
20260507010251 46 273 0.0 0.0 0.02 0.34 0.00 94 1000.5
20260507010011 46 273 0.0 0.0 0.02 0.00 0.00 94 1000.7
20260507005509 46 273 0.0 0.0 0.01 0.00 0.00 94 1000.7
20260507005506 46 273 0.0 0.0 0.02 0.34 0.00 94 1000.4
20260507005016 46 273 0.0 0.0 0.01 0.33 0.00 94 1000.3
20260507005005 46 273 0.0 0.0 0.01 0.00 0.00 94 1000.4
20260507004743 46 273 0.0 0.0 0.01 0.33 0.00 94 1000.2
20260507004502 46 273 0.0 0.0 0.01 0.00 0.00 94 1000.4
20260507004013 46 273 0.0 0.0 0.01 0.33 0.00 94 1000.2
20260507004000 46 273 0.0 0.0 0.01 0.00 0.00 94 1000.4
20260507003507 47 273 0.0 0.0 0.01 0.33 0.00 94 1000.2
20260507003454 47 273 0.0 0.0 0.01 0.00 0.00 94 1000.4
20260507003236 47 273 0.0 0.0 0.01 0.33 0.00 94 999.9
20260507002944 47 273 0.0 0.0 0.01 0.00 0.00 94 1000.0
20260507002737 47 273 0.0 0.0 0.01 0.33 0.00 94 1000.0
20260507002441 47 273 0.0 0.0 0.01 0.00 0.00 94 1000.0
20260507002004 47 273 0.0 0.0 0.01 0.33 0.00 94 999.8
20260507001938 47 273 0.0 0.0 0.01 0.00 0.00 94 1000.0
20260507001503 47 273 0.0 0.0 0.01 0.33 0.00 94 999.9
20260507001434 47 273 0.0 0.0 0.01 0.00 0.00 94 1000.0
20260507001003 47 273 0.0 0.0 0.01 0.32 0.00 94 999.9
20260507000932 47 273 0.0 0.0 0.01 0.00 0.00 94 1000.0
20260507000755 47 273 0.0 0.0 0.01 0.32 0.00 94 999.9
20260507000751 47 273 0.0 0.0 0.01 0.32 0.00 94 999.9
20260507000427 47 273 0.0 0.0 0.01 0.00 0.00 94 1000.0
20260506235923 47 273 0.0 0.0 0.01 0.00 0.00 94 1000.0
20260506235500 47 273 0.0 0.0 0.01 0.32 0.00 94 999.8
20260506235420 47 273 0.0 0.0 0.01 0.00 0.00 94 1000.0
20260506234959 47 273 0.0 0.0 0.01 0.32 0.00 94 999.9
20260506234910 47 273 0.0 0.0 0.01 0.00 0.00 94 1000.0
20260506234732 47 273 0.0 0.0 0.01 0.32 0.00 94 999.8
20260506234408 47 273 0.0 0.0 0.01 0.00 0.00 94 1000.0
20260506234235 47 273 0.0 0.0 0.01 0.32 0.00 94 999.7
20260506233906 47 273 0.0 0.0 0.01 0.00 0.00 94 999.7
20260506233458 47 273 0.0 0.0 0.01 0.32 0.00 94 999.7
20260506233401 47 273 0.0 0.0 0.01 0.00 0.00 94 1000.0
20260506232955 47 273 0.0 0.0 0.02 0.32 0.00 94 999.6
20260506232858 47 273 0.0 0.0 0.02 0.00 0.00 94 999.7
20260506232458 47 273 0.0 0.0 0.02 0.32 0.00 94 999.5
20260506232354 47 273 0.0 0.0 0.02 0.00 0.00 94 999.7
20260506232224 47 273 0.0 0.0 0.02 0.32 0.00 94 999.5
20260506231850 47 273 0.0 0.0 0.02 0.00 0.00 94 999.7
20260506231450 47 273 0.0 0.0 0.02 0.32 0.00 94 999.4
20260506231348 47 273 0.0 0.0 0.02 0.00 0.00 94 999.7
20260506230943 47 273 0.0 0.0 0.01 0.31 0.00 94 999.4
20260506230845 47 273 0.0 0.0 0.01 0.00 0.00 94 999.2
20260506230731 47 273 0.0 0.0 0.01 0.31 0.00 94 999.3
20260506230341 47 273 0.0 0.0 0.01 0.00 0.00 94 999.2
20260506225941 47 273 0.0 0.0 0.01 0.31 0.00 94 999.2
20260506225837 48 273 0.0 0.0 0.01 0.00 0.00 94 999.2
20260506225441 47 273 0.0 1.0 0.01 0.31 0.00 94 999.3
20260506225335 48 273 0.0 1.0 0.01 0.00 0.00 94 999.2
20260506225217 47 273 0.0 1.0 0.01 0.31 0.00 94 999.2
20260506224827 48 273 0.0 1.0 0.01 0.00 0.00 94 999.2
20260506224438 47 273 0.0 1.0 0.01 0.31 0.00 94 999.2
20260506224324 48 273 0.0 1.0 0.01 0.00 0.00 94 999.2
20260506223937 47 273 0.0 1.0 0.01 0.31 0.00 95 999.2
20260506223820 48 273 0.0 1.0 0.01 0.00 0.00 95 999.2
20260506223437 47 273 0.0 1.0 0.02 0.31 0.00 95 999.1
20260506223315 48 273 0.0 1.0 0.02 0.00 0.00 95 999.2
20260506222940 47 273 0.0 1.0 0.01 0.30 0.00 95 999.1
20260506222813 48 273 0.0 1.0 0.01 0.00 0.00 95 999.2
20260506222437 47 273 0.0 1.0 0.01 0.30 0.00 95 999.2
20260506222308 48 273 0.0 1.0 0.01 0.00 0.00 95 999.2
20260506221931 47 273 0.0 1.0 0.01 0.30 0.00 95 999.1
20260506221807 48 273 0.0 1.0 0.01 0.00 0.00 95 998.9
20260506221431 47 273 0.0 1.0 0.01 0.30 0.00 95 998.9
20260506221304 48 273 0.0 1.0 0.01 0.00 0.00 95 999.2
20260506220931 47 273 0.0 1.0 0.01 0.30 0.00 95 999.1
20260506220801 48 273 0.0 1.0 0.01 0.00 0.00 95 999.2
20260506220431 47 273 0.0 2.0 0.02 0.30 0.00 95 999.2
20260506220256 48 273 0.0 2.0 0.02 0.00 0.00 95 999.2
20260506215930 47 271 0.0 2.0 0.02 0.30 0.00 95 999.2
20260506215753 48 271 0.0 2.0 0.02 0.00 0.00 95 999.2
20260506215430 47 275 0.0 0.0 0.02 0.30 0.00 95 999.3
20260506215249 48 275 0.0 2.0 0.02 0.00 0.00 94 999.2
20260506214931 47 275 0.0 2.0 0.02 0.30 0.00 94 999.1
20260506214745 48 275 0.0 2.0 0.02 0.00 0.00 94 999.2
20260506214432 47 275 0.0 2.0 0.02 0.30 0.00 94 999.1
20260506214242 47 274 0.0 1.0 0.02 0.00 0.00 94 998.9
20260506214206 47 274 0.0 1.0 0.02 0.30 0.00 95 998.8
20260506213741 47 274 0.0 1.0 0.01 0.00 0.00 95 998.9
20260506213431 47 275 0.0 0.0 0.01 0.29 0.00 94 999.0
20260506213237 47 275 0.0 0.0 0.01 0.00 0.00 95 999.2
20260506212925 47 275 0.0 0.0 0.01 0.29 0.00 94 999.1
20260506212735 47 273 0.0 1.0 0.01 0.00 0.00 95 999.2
20260506212421 47 277 0.0 1.0 0.01 0.29 0.00 95 999.0
20260506212230 47 304 0.0 1.0 0.01 0.00 0.00 94 999.2
20260506211921 47 306 0.0 1.0 0.01 0.29 0.00 94 999.0
20260506211720 47 306 0.0 1.0 0.02 0.00 0.00 95 998.9
20260506211421 47 306 0.0 1.0 0.02 0.29 0.00 94 998.8
20260506211216 47 350 0.0 1.0 0.02 0.00 0.00 94 998.9
20260506210921 47 350 0.0 1.0 0.02 0.29 0.00 94 998.9
20260506210713 47 350 0.0 0.0 0.02 0.00 0.00 94 998.9
20260506210421 47 350 0.0 0.0 0.01 0.28 0.00 94 998.8
20260506210210 47 298 0.0 0.0 0.01 0.00 0.00 94 998.9
20260506205921 47 305 0.0 0.0 0.01 0.28 0.00 94 998.8
20260506205707 47 305 0.0 1.0 0.01 0.00 0.00 94 998.9
20260506205424 47 305 0.0 1.0 0.01 0.28 0.00 94 998.7
20260506205202 47 300 0.0 3.0 0.01 0.00 0.00 94 998.9
20260506204920 47 311 0.0 3.0 0.02 0.28 0.00 94 998.6
20260506204700 47 279 0.0 3.0 0.02 0.00 0.00 94 998.6
20260506204421 47 272 0.0 3.0 0.02 0.28 0.00 94 998.5
20260506204156 47 296 1.0 6.0 0.02 0.00 0.00 94 998.6
20260506204148 47 296 1.0 6.0 0.02 0.28 0.00 94 998.4
20260506203655 47 283 1.0 6.0 0.02 0.00 0.00 94 998.6
20260506203420 47 264 1.0 6.0 0.02 0.28 0.00 94 998.4
20260506203152 48 280 1.0 7.0 0.02 0.00 0.00 95 998.6
20260506202920 47 300 1.0 7.0 0.02 0.28 0.00 95 998.2
20260506202650 48 311 1.0 11.0 0.02 0.00 0.00 95 998.6
20260506202420 47 290 2.0 11.0 0.02 0.28 0.00 95 998.2
20260506202145 48 294 2.0 11.0 0.02 0.00 0.00 95 998.2
20260506201918 48 288 1.0 11.0 0.02 0.28 0.00 95 998.2
20260506201643 48 208 1.0 4.0 0.01 0.00 0.00 95 998.2
20260506201420 48 202 1.0 4.0 0.01 0.27 0.00 95 998.1
20260506201145 48 313 2.0 5.0 0.01 0.28 0.00 94 998.1
20260506201139 48 186 1.0 5.0 0.01 0.00 0.00 94 998.2
20260506200636 48 331 2.0 5.0 0.01 0.00 0.00 94 998.2
20260506200420 48 292 1.0 11.0 0.02 0.28 0.00 94 998.0
20260506200133 48 309 1.0 11.0 0.02 0.00 0.00 94 998.2
20260506195913 48 93 1.0 11.0 0.02 0.28 0.00 94 998.0
20260506195629 48 219 0.0 11.0 0.02 0.00 0.00 95 998.2
20260506195411 48 15 0.0 0.0 0.02 0.28 0.00 95 998.0
20260506195125 48 284 0.0 2.0 0.02 0.00 0.00 95 997.9
20260506194909 48 293 0.0 2.0 0.01 0.27 0.00 95 997.9
20260506194623 48 223 1.0 2.0 0.01 0.00 0.00 95 997.6
20260506194409 48 117 0.0 2.0 0.01 0.27 0.00 95 997.6
20260506194119 48 143 0.0 2.0 0.02 0.00 0.00 95 997.9
20260506193907 48 143 0.0 2.0 0.02 0.28 0.00 95 997.7
20260506193617 49 144 0.0 2.0 0.02 0.00 0.00 95 997.9
20260506193406 49 252 0.0 0.0 0.02 0.28 0.00 95 997.7
20260506193114 49 320 0.0 0.0 0.02 0.00 0.00 95 997.9
20260506192908 49 5 0.0 0.0 0.02 0.28 0.00 95 997.8
20260506192611 49 351 0.0 0.0 0.02 0.00 0.00 95 997.9
20260506192408 49 350 0.0 0.0 0.02 0.29 0.00 95 997.6
20260506192141 48 317 0.0 0.0 0.02 0.30 0.00 95 997.6
20260506192107 48 317 0.0 0.0 0.02 0.00 0.00 95 997.6
20260506191604 48 174 0.0 2.0 0.02 0.00 0.00 95 997.6
20260506191406 48 220 0.0 2.0 0.02 0.30 0.00 95 997.6
20260506191059 48 271 0.0 2.0 0.02 0.00 0.00 95 997.6
20260506190907 48 271 0.0 2.0 0.02 0.31 0.00 95 997.6
20260506190557 48 277 1.0 2.0 0.01 0.00 0.00 95 997.6
20260506190405 48 284 1.0 4.0 0.01 0.31 0.00 95 997.5
20260506190054 48 284 1.0 4.0 0.01 0.00 0.00 95 997.6
20260506185906 48 285 1.0 5.0 0.01 0.31 0.00 95 997.6
20260506185551 48 285 1.0 5.0 0.02 0.00 0.00 95 997.9
20260506185405 48 291 1.0 5.0 0.02 0.31 0.00 95 997.6
20260506185047 48 327 0.0 5.0 0.02 0.00 0.00 95 997.6
20260506184905 49 267 0.0 2.0 0.02 0.31 0.00 95 997.5
20260506184636 49 295 0.0 0.0 0.02 0.33 0.00 95 997.4
20260506184545 49 5 0.0 0.0 0.02 0.00 0.00 95 997.6
20260506184137 49 284 0.0 0.0 0.01 0.34 0.00 95 997.4
20260506184042 49 284 0.0 0.0 0.01 0.00 0.00 95 997.6
20260506183641 49 274 0.0 0.0 0.02 0.35 0.00 95 997.4
20260506183538 49 274 0.0 0.0 0.02 0.00 0.00 95 997.6
20260506183035 49 274 0.0 0.0 0.02 0.00 0.00 95 997.6
20260506182903 49 274 0.0 0.0 0.02 0.35 0.00 95 997.3
20260506182640 49 273 0.0 1.0 0.02 0.35 0.00 95 997.2
20260506182532 49 273 0.0 1.0 0.02 0.00 0.00 95 997.2
20260506182029 48 277 0.0 1.0 0.02 0.00 0.00 95 997.2
20260506181908 48 262 0.0 1.0 0.02 0.35 0.00 95 997.1
20260506181527 49 300 0.0 0.0 0.02 0.00 0.00 95 997.2
20260506181409 49 292 0.0 0.0 0.02 0.35 0.00 95 997.1
20260506181024 49 292 0.0 0.0 0.02 0.00 0.00 95 997.2
20260506180910 49 292 0.0 0.0 0.02 0.35 0.00 95 997.0
20260506180642 48 271 0.0 0.0 0.02 0.35 0.00 95 997.0
20260506180520 48 271 0.0 0.0 0.02 0.00 0.00 95 997.2
20260506180016 48 279 0.0 0.0 0.02 0.00 0.00 95 997.2
20260506175910 48 279 0.0 0.0 0.02 0.35 0.00 95 997.0
20260506175513 48 309 0.0 0.0 0.02 0.00 0.00 95 996.9
20260506175406 48 309 0.0 0.0 0.02 0.34 0.00 95 996.9
20260506175009 48 263 0.0 0.0 0.02 0.00 0.00 95 996.9
20260506174904 48 263 0.0 0.0 0.02 0.34 0.00 95 996.9
20260506174508 48 300 0.0 0.0 0.02 0.00 0.00 95 996.9
20260506174410 48 300 0.0 0.0 0.02 0.34 0.00 95 996.8
20260506174003 48 262 0.0 0.0 0.02 0.00 0.00 95 996.9
20260506173902 48 261 0.0 0.0 0.02 0.34 0.00 95 996.7
20260506173502 48 290 0.0 0.0 0.02 0.00 0.00 95 996.5
20260506173403 48 288 0.0 0.0 0.02 0.33 0.00 95 996.6
20260506173142 48 298 0.0 0.0 0.02 0.33 0.00 95 996.7
20260506172958 48 298 0.0 0.0 0.02 0.00 0.00 95 996.9
20260506172455 48 296 0.0 0.0 0.02 0.00 0.00 95 996.9
20260506172402 48 296 0.0 0.0 0.02 0.33 0.00 95 996.7
20260506171946 48 286 0.0 0.0 0.02 0.00 0.00 95 996.9
20260506171900 48 286 0.0 0.0 0.02 0.33 0.00 95 996.7
20260506171444 48 295 0.0 0.0 0.02 0.00 0.00 95 996.5
20260506171400 48 295 0.0 0.0 0.02 0.33 0.00 95 996.5
20260506170941 48 291 0.0 0.0 0.02 0.00 0.00 95 996.5
20260506170900 48 291 0.0 0.0 0.02 0.33 0.00 95 996.5
20260506170437 48 306 0.0 0.0 0.02 0.00 0.00 95 996.5
20260506170400 48 313 0.0 0.0 0.02 0.33 0.00 95 996.6
20260506170135 48 274 0.0 0.0 0.03 0.33 0.00 95 996.6
20260506165930 48 274 0.0 0.0 0.03 0.00 0.00 95 996.5
20260506165428 48 275 0.0 0.0 0.02 0.00 0.00 95 996.9
20260506165400 48 275 0.0 0.0 0.02 0.32 0.00 95 996.7
20260506164918 48 297 0.0 0.0 0.02 0.00 0.00 95 996.5
20260506164902 48 297 0.0 0.0 0.02 0.32 0.00 95 996.6
20260506164414 48 297 0.0 2.0 0.02 0.00 0.00 95 996.5
20260506164401 48 297 0.0 2.0 0.02 0.32 0.00 95 996.6
20260506163908 48 295 1.0 4.0 0.03 0.00 0.00 95 996.5
20260506163900 47 295 1.0 4.0 0.03 0.32 0.00 95 996.6
20260506163401 47 303 1.0 4.0 0.02 0.31 0.00 95 996.7
20260506162858 47 280 0.0 2.0 0.02 0.31 0.00 95 996.6
20260506162856 48 280 0.0 2.0 0.02 0.00 0.00 95 996.5
20260506162356 47 280 0.0 2.0 0.02 0.31 0.00 95 996.6
20260506161858 47 280 0.0 2.0 0.02 0.31 0.00 95 996.7
20260506161846 47 280 0.0 2.0 0.02 0.00 0.00 95 996.9
20260506161352 47 280 0.0 0.0 0.02 0.31 0.00 95 996.6
20260506161344 47 280 0.0 0.0 0.02 0.00 0.00 95 996.5
20260506160848 47 280 0.0 0.0 0.03 0.31 0.00 95 996.5
20260506160842 47 280 0.0 0.0 0.03 0.00 0.00 95 996.5
20260506160625 47 293 0.0 0.0 0.03 0.31 0.00 95 996.4
20260506160338 47 293 0.0 0.0 0.03 0.00 0.00 95 996.5
20260506155848 47 293 0.0 0.0 0.02 0.30 0.00 95 996.5
20260506155836 47 285 0.0 0.0 0.02 0.00 0.00 95 996.5
20260506155348 47 294 0.0 0.0 0.03 0.30 0.00 95 996.5
20260506155333 47 294 0.0 0.0 0.03 0.00 0.00 95 996.5
20260506154843 47 294 0.0 0.0 0.03 0.30 0.00 95 996.6
20260506154339 47 296 0.0 0.0 0.03 0.30 0.00 94 996.5
20260506153840 47 336 0.0 0.0 0.02 0.29 0.00 94 996.5
20260506153445 47 338 0.0 0.0 0.02 0.00 0.00 94 996.5
20260506153339 47 338 0.0 0.0 0.02 0.29 0.00 94 996.6
20260506153124 46 277 0.0 0.0 0.03 0.29 0.00 94 996.6
20260506152942 46 277 0.0 0.0 0.03 0.00 0.00 94 996.5
20260506152439 46 275 0.0 0.0 0.03 0.00 0.00 94 996.5
20260506152336 46 275 0.0 0.0 0.03 0.29 0.00 94 996.5
20260506151938 46 275 0.0 0.0 0.03 0.00 0.00 94 996.5
20260506151834 46 275 0.0 0.0 0.03 0.29 0.00 94 996.5
20260506151434 46 275 0.0 0.0 0.04 0.00 0.00 94 996.5
20260506151334 46 275 0.0 0.0 0.04 0.29 0.00 94 996.5
20260506150932 46 275 0.0 0.0 0.03 0.00 0.00 94 996.5
20260506150837 46 275 0.0 0.0 0.03 0.28 0.00 94 996.5
20260506150428 46 275 0.0 0.0 0.03 0.00 0.00 94 996.5
20260506150334 46 281 0.0 0.0 0.03 0.28 0.00 94 996.5
20260506150109 46 308 0.0 0.0 0.03 0.28 0.00 94 996.6
20260506145925 46 257 0.0 0.0 0.03 0.00 0.00 94 996.5
20260506145421 46 277 0.0 0.0 0.02 0.00 0.00 94 996.5
20260506145330 46 277 0.0 0.0 0.02 0.27 0.00 94 996.5
20260506144919 46 303 0.0 0.0 0.03 0.00 0.00 94 996.5
20260506144822 46 298 0.0 0.0 0.03 0.27 0.00 94 996.5
20260506144415 46 298 0.0 0.0 0.03 0.00 0.00 94 996.5
20260506144318 47 298 0.0 0.0 0.03 0.27 0.00 94 996.4
20260506143914 47 298 0.0 0.0 0.03 0.00 0.00 94 996.5
20260506143812 47 273 0.0 0.0 0.03 0.27 0.00 94 996.4
20260506143410 47 248 0.0 0.0 0.04 0.00 0.00 94 996.5
20260506143312 47 248 0.0 0.0 0.04 0.27 0.00 94 996.4
20260506142909 47 199 0.0 0.0 0.03 0.00 0.00 94 996.5
20260506142813 47 199 0.0 0.0 0.03 0.26 0.00 94 996.3
20260506142407 47 198 0.0 0.0 0.03 0.00 0.00 94 996.2
20260506142310 47 198 0.0 0.0 0.03 0.26 0.00 94 995.9
20260506141904 47 197 0.0 0.0 0.03 0.00 0.00 94 996.2
20260506141808 47 197 0.0 0.0 0.03 0.26 0.00 94 995.9
20260506141402 47 197 0.0 0.0 0.02 0.00 0.00 94 996.2
20260506141318 47 197 0.0 0.0 0.02 0.25 0.00 94 995.9
20260506140900 47 148 0.0 0.0 0.03 0.00 0.00 94 996.2
20260506140805 47 149 0.0 0.0 0.03 0.25 0.00 94 996.0
20260506140357 47 290 0.0 0.0 0.03 0.00 0.00 94 996.2
20260506140306 47 290 0.0 0.0 0.03 0.25 0.00 94 995.9
20260506135854 47 287 0.0 0.0 0.03 0.00 0.00 94 996.2
20260506135806 47 287 0.0 0.0 0.03 0.25 0.00 94 996.2
20260506135549 47 289 0.0 0.0 0.04 0.25 0.00 94 996.2
20260506135351 47 289 0.0 0.0 0.04 0.00 0.00 94 996.2
20260506134847 47 254 0.0 0.0 0.03 0.00 0.00 94 996.2
20260506134805 47 254 0.0 0.0 0.03 0.24 0.00 94 996.2
20260506134343 47 254 0.0 0.0 0.03 0.00 0.00 94 996.2
20260506134317 47 254 0.0 0.0 0.03 0.24 0.00 94 996.2
20260506134313 47 254 0.0 0.0 0.03 0.24 0.00 94 996.0
20260506133840 47 254 0.0 0.0 0.03 0.00 0.00 94 996.2
20260506133337 47 250 0.0 0.0 0.03 0.00 0.00 94 996.5
20260506133305 47 250 0.0 0.0 0.03 0.23 0.00 94 996.3
20260506132833 48 246 0.0 0.0 0.03 0.00 0.00 94 996.2
20260506132804 47 246 0.0 0.0 0.03 0.23 0.00 94 996.2
20260506132331 48 245 0.0 0.0 0.03 0.00 0.00 94 996.2
20260506132306 47 245 0.0 0.0 0.03 0.23 0.00 94 996.2
20260506131829 48 217 0.0 0.0 0.04 0.00 0.00 94 996.2
20260506131810 48 217 0.0 0.0 0.04 0.23 0.00 94 996.2
20260506131325 48 213 0.0 0.0 0.04 0.00 0.00 94 996.5
20260506131306 48 213 0.0 0.0 0.04 0.23 0.00 94 996.3
20260506130822 48 213 0.0 0.0 0.03 0.00 0.00 94 996.5
20260506130804 48 213 0.0 0.0 0.03 0.22 0.00 94 996.4
20260506130535 48 302 0.0 0.0 0.03 0.22 0.00 94 996.5
20260506130318 48 302 0.0 0.0 0.03 0.00 0.00 94 996.5
20260506125816 48 167 0.0 0.0 0.02 0.00 0.00 94 996.5
20260506125758 48 167 0.0 0.0 0.02 0.21 0.00 94 996.3
20260506125314 49 162 0.0 0.0 0.03 0.00 0.00 94 996.5
20260506125257 49 162 0.0 0.0 0.03 0.21 0.00 94 996.3
20260506124813 49 272 0.0 0.0 0.03 0.00 0.00 94 996.5
20260506124754 49 272 0.0 0.0 0.03 0.21 0.00 94 996.3
20260506124309 50 348 0.0 0.0 0.03 0.00 0.00 94 996.5
20260506124254 49 348 0.0 0.0 0.03 0.21 0.00 94 996.4
20260506123807 50 300 0.0 0.0 0.04 0.00 0.00 94 996.2
20260506123756 49 300 0.0 0.0 0.04 0.21 0.00 94 996.0
20260506123306 50 184 0.0 0.0 0.03 0.00 0.00 94 996.5
20260506123254 49 183 0.0 0.0 0.03 0.20 0.00 94 996.0
20260506122802 50 200 0.0 0.0 0.03 0.00 0.00 94 996.2
20260506122753 49 200 0.0 0.0 0.03 0.20 0.00 94 995.9
20260506122259 50 190 0.0 0.0 0.03 0.00 0.00 94 995.9
20260506122251 49 190 0.0 0.0 0.03 0.20 0.00 94 995.9
20260506121757 50 269 0.0 0.0 0.02 0.00 0.00 94 995.9
20260506121749 49 269 0.0 0.0 0.02 0.19 0.00 94 996.0
20260506121254 50 269 0.0 0.0 0.02 0.00 0.00 94 995.9
20260506121246 49 269 0.0 0.0 0.02 0.19 0.00 94 995.9
20260506120751 50 269 0.0 0.0 0.03 0.00 0.00 94 995.9
20260506120745 49 269 0.0 0.0 0.03 0.19 0.00 94 995.7
20260506120527 49 269 0.0 0.0 0.03 0.19 0.00 94 995.6
20260506120249 50 269 0.0 0.0 0.03 0.00 0.00 94 995.9
20260506115746 50 269 0.0 0.0 0.03 0.00 0.00 94 995.9
20260506115744 49 269 0.0 0.0 0.03 0.19 0.00 94 995.7
20260506115244 50 269 0.0 0.0 0.03 0.00 0.00 94 995.9
20260506115242 49 269 0.0 0.0 0.03 0.18 0.00 94 995.6
20260506114741 50 269 0.0 0.0 0.03 0.00 0.00 94 995.9
20260506114244 49 269 0.0 0.0 0.03 0.18 0.00 94 995.7
20260506114239 49 269 0.0 0.0 0.03 0.00 0.00 94 995.9
20260506113739 49 269 0.0 0.0 0.02 0.17 0.00 94 995.7
20260506113737 49 269 0.0 0.0 0.02 0.00 0.00 94 995.9
20260506113237 49 269 0.0 0.0 0.02 0.17 0.00 94 995.6
20260506113235 49 269 0.0 0.0 0.02 0.00 0.00 94 995.9
20260506112733 49 269 0.0 0.0 0.02 0.17 0.00 94 995.6
20260506112730 49 269 0.0 0.0 0.02 0.00 0.00 94 995.9
20260506112249 49 269 0.0 0.0 0.03 0.17 0.00 94 995.5
20260506112245 49 269 0.0 0.0 0.02 0.17 0.00 94 995.6
20260506112228 49 269 0.0 0.0 0.03 0.00 0.00 94 995.9
20260506111726 49 269 0.0 0.0 0.03 0.00 0.00 94 995.9
20260506111509 49 269 0.0 0.0 0.03 0.17 0.00 94 995.6
20260506111224 49 269 0.0 0.0 0.03 0.00 0.00 94 995.9
20260506110724 49 269 0.0 0.0 0.02 0.16 0.00 94 995.8
20260506110721 49 269 0.0 0.0 0.02 0.00 0.00 94 995.9
20260506110218 49 269 0.0 0.0 0.02 0.00 0.00 94 995.9
20260506105718 49 269 0.0 0.0 0.03 0.16 0.00 94 995.8
20260506105714 49 269 0.0 0.0 0.03 0.00 0.00 94 995.9
20260506105217 49 269 0.0 0.0 0.02 0.15 0.00 94 995.8
20260506105211 49 269 0.0 0.0 0.02 0.00 0.00 94 995.9
20260506104716 49 269 0.0 0.0 0.02 0.15 0.00 94 995.8
20260506104710 49 269 0.0 0.0 0.02 0.00 0.00 94 995.9
20260506104214 49 269 0.0 0.0 0.02 0.15 0.00 93 995.8
20260506104207 49 269 0.0 0.0 0.02 0.00 0.00 93 995.9
20260506103713 49 269 0.0 0.0 0.02 0.15 0.00 93 995.8
20260506103704 49 269 0.0 0.0 0.02 0.00 0.00 93 995.9
20260506103209 49 269 0.0 0.0 0.02 0.15 0.00 93 995.8
20260506103201 49 269 0.0 0.0 0.02 0.00 0.00 93 995.9
20260506102707 49 269 0.0 0.0 0.03 0.15 0.00 93 995.8
20260506102659 49 269 0.0 0.0 0.03 0.00 0.00 93 995.9
20260506102450 49 269 0.0 0.0 0.03 0.15 0.00 93 995.9
20260506102156 49 269 0.0 0.0 0.03 0.00 0.00 93 996.2
20260506101712 49 269 0.0 0.0 0.02 0.14 0.00 93 995.9
20260506101653 49 269 0.0 0.0 0.02 0.00 0.00 93 996.2
20260506101208 49 269 0.0 0.0 0.02 0.14 0.00 93 995.9
20260506101149 49 269 0.0 0.0 0.02 0.00 0.00 93 996.2
20260506100707 49 269 0.0 0.0 0.03 0.14 0.00 93 996.0
20260506100648 49 269 0.0 0.0 0.03 0.00 0.00 93 996.2
20260506100208 49 269 0.0 0.0 0.03 0.15 0.00 93 996.2
20260506100145 49 269 0.0 0.0 0.03 0.00 0.00 93 996.2
20260506095946 49 269 0.0 0.0 0.02 0.16 0.00 93 996.2
20260506095644 49 269 0.0 0.0 0.02 0.00 0.00 93 996.2
20260506095449 49 269 0.0 0.0 0.02 0.18 0.00 93 996.4
20260506095140 49 269 0.0 0.0 0.02 0.00 0.00 93 996.5
20260506094710 49 269 0.0 0.0 0.02 0.18 0.00 93 996.3
20260506094638 49 269 0.0 0.0 0.02 0.00 0.00 93 996.5
20260506094209 49 269 0.0 0.0 0.02 0.18 0.00 93 996.2
20260506094135 49 269 0.0 0.0 0.02 0.00 0.00 93 996.2
20260506093707 49 269 0.0 0.0 0.02 0.18 0.00 93 996.3
20260506093634 49 269 0.0 0.0 0.02 0.00 0.00 93 996.2
20260506093210 49 269 0.0 0.0 0.02 0.18 0.00 93 995.9
20260506093130 49 269 0.0 0.0 0.02 0.00 0.00 93 996.2
20260506092705 49 269 0.0 0.0 0.01 0.17 0.00 93 996.0
20260506092628 49 268 0.0 0.0 0.01 0.00 0.00 93 996.2
20260506092210 49 268 0.0 0.0 0.01 0.17 0.00 93 996.2
20260506092125 49 268 0.0 0.0 0.01 0.00 0.00 93 996.5
20260506091712 49 268 0.0 0.0 0.01 0.17 0.00 93 996.5
20260506091623 49 268 0.0 0.0 0.01 0.00 0.00 93 996.5
20260506091209 49 312 0.0 0.0 0.01 0.17 0.00 93 996.6
20260506091120 49 312 0.0 0.0 0.01 0.00 0.00 93 996.5
20260506090705 49 311 0.0 0.0 0.00 0.16 0.00 93 996.7
20260506090619 49 298 0.0 0.0 0.00 0.00 0.00 93 996.9
20260506090206 49 265 0.0 0.0 0.00 0.16 0.00 93 996.8
20260506090114 49 265 0.0 0.0 0.00 0.00 0.00 93 996.5
20260506085702 49 265 0.0 0.0 0.00 0.16 0.00 93 996.6
20260506085611 49 265 0.0 0.0 0.00 0.00 0.00 93 996.5
20260506085200 49 265 0.0 0.0 0.00 0.16 0.00 93 996.4
20260506085108 49 265 0.0 0.0 0.00 0.00 0.00 93 996.5
20260506084658 49 265 0.0 0.0 0.00 0.16 0.00 93 996.4
20260506084604 49 265 0.0 0.0 0.00 0.00 0.00 93 996.5
20260506084433 49 265 0.0 0.0 0.00 0.16 0.00 93 996.3
20260506084101 49 265 0.0 0.0 0.00 0.00 0.00 93 996.5
20260506083656 49 265 0.0 0.0 0.00 0.16 0.00 93 996.2
20260506083558 49 265 0.0 0.0 0.00 0.00 0.00 93 996.2
20260506083154 49 265 0.0 0.0 0.00 0.16 0.00 93 996.3
20260506083055 49 265 0.0 0.0 0.00 0.00 0.00 93 996.5
20260506082658 49 265 0.0 0.0 0.00 0.16 0.00 93 996.3
20260506082552 49 265 0.0 0.0 0.00 0.00 0.00 93 996.5
20260506082437 49 265 0.0 0.0 0.00 0.16 0.00 93 996.0
20260506082048 49 265 0.0 0.0 0.00 0.00 0.00 93 996.2
20260506081658 49 265 0.0 0.0 0.00 0.16 0.00 93 996.0
20260506081546 49 265 0.0 0.0 0.00 0.00 0.00 93 996.2
20260506081200 49 265 0.0 0.0 0.00 0.16 0.00 93 996.2
20260506081043 49 265 0.0 0.0 0.00 0.00 0.00 93 996.2
20260506080652 49 265 0.0 0.0 0.00 0.16 0.00 93 996.3
20260506080541 49 265 0.0 0.0 0.00 0.00 0.00 92 996.2
20260506080154 49 265 0.0 0.0 0.00 0.16 0.00 92 996.3
20260506073524 49 265 0.0 0.0 0.00 0.00 0.00 92 996.5
20260506073148 49 265 0.0 0.0 0.00 0.16 0.00 92 996.3
20260506073021 49 265 0.0 0.0 0.00 0.00 0.00 92 996.5
20260506072643 49 265 0.0 0.0 0.00 0.16 0.00 92 996.4
20260506072519 49 265 0.0 0.0 0.00 0.00 0.00 92 996.5
20260506072143 49 265 0.0 0.0 0.00 0.16 0.00 92 996.6
20260506072016 49 265 0.0 0.0 0.00 0.00 0.00 92 996.5
20260506071643 49 265 0.0 0.0 0.00 0.16 0.00 92 996.7
20260506071514 48 265 0.0 0.0 0.00 0.00 0.00 92 996.5
20260506071144 48 265 0.0 0.0 0.00 0.16 0.00 92 996.6
20260506071011 48 265 0.0 0.0 0.00 0.00 0.00 92 996.5
20260506070643 48 265 0.0 0.0 0.00 0.16 0.00 92 996.7
20260506070508 48 265 0.0 0.0 0.00 0.00 0.00 92 996.9
20260506070143 48 265 0.0 0.0 0.00 0.16 0.00 92 996.7
20260506062445 48 265 0.0 0.0 0.00 0.00 0.00 91 997.6
20260506062141 48 265 0.0 0.0 0.00 0.16 0.00 91 997.6
20260506061942 48 265 0.0 0.0 0.00 0.00 0.00 90 997.6
20260506061644 48 265 0.0 0.0 0.00 0.16 0.00 90 997.6
20260506061438 48 265 0.0 0.0 0.00 0.00 0.00 90 997.6
20260506061144 48 265 0.0 0.0 0.00 0.16 0.00 90 997.6
20260506060936 48 265 0.0 0.0 0.00 0.00 0.00 90 997.9
20260506060638 48 265 0.0 0.0 0.00 0.16 0.00 90 997.9
20260506060434 48 265 0.0 0.0 0.00 0.00 0.00 90 997.9
20260506060137 48 265 0.0 0.0 0.00 0.16 0.00 89 997.9
20260506051406 49 265 0.0 0.0 0.00 0.00 0.00 87 998.6
20260506051127 49 265 0.0 0.0 0.00 0.16 0.00 87 998.4
20260506050903 49 265 0.0 0.0 0.00 0.00 0.00 87 998.6
20260506050651 49 265 0.0 0.0 0.00 0.16 0.00 87 998.4
20260506050646 49 265 0.0 0.0 0.00 0.16 0.00 87 998.5
20260506050400 49 265 0.0 0.0 0.00 0.00 0.00 87 998.6
20260506045119 49 265 0.0 0.0 0.00 0.16 0.00 87 998.3
20260506044851 50 265 0.0 0.0 0.00 0.00 0.00 86 998.6
20260506044620 49 265 0.0 0.0 0.00 0.16 0.00 86 998.3
20260506044357 50 265 0.0 0.0 0.00 0.16 0.00 86 998.5
20260506044349 50 265 0.0 0.0 0.00 0.00 0.00 86 998.6
20260506043846 50 265 0.0 0.0 0.00 0.00 0.00 86 998.6
20260506043615 50 265 0.0 0.0 0.00 0.16 0.00 86 998.6
20260506043343 50 265 0.0 0.0 0.00 0.00 0.00 86 998.6
20260506043120 50 265 0.0 0.0 0.00 0.16 0.00 86 998.6
20260506042841 50 265 0.0 0.0 0.00 0.00 0.00 86 998.6
20260506042615 50 265 0.0 0.0 0.00 0.16 0.00 86 998.6
20260506042340 50 265 0.0 0.0 0.00 0.00 0.00 86 998.6
20260506042115 50 265 0.0 0.0 0.00 0.16 0.00 86 998.6
20260506041838 51 265 0.0 0.0 0.00 0.00 0.00 86 998.6
20260506041614 51 265 0.0 0.0 0.00 0.16 0.00 86 998.5
20260506041335 51 265 0.0 0.0 0.00 0.00 0.00 86 998.6
20260506041109 51 265 0.0 0.0 0.00 0.16 0.00 86 998.4
20260506040840 51 265 0.0 0.0 0.00 0.16 0.00 86 998.4
20260506040832 51 265 0.0 0.0 0.00 0.00 0.00 86 998.6